User: anonymous   Login
Location: Valdosta
(30.8330°N, 83.2790°W)
Time: 02:08:18
(UTC-05:00)
Language:

Uribyol 2 - Orbit

View from above orbital plane
View from above orbital plane
View from above satellite
View from above satellite

Ground track
Ground track

The orbit data is extracted from the following two-line orbital elements,

1 22828U 93061F   15030.89101645  .00000174  00000-0  84144-4 0  8215
2 22828 098.6792 340.4929 0009014 317.4473 042.6010 14.30437388 81798
Epoch (UTC): 30 January 2015 21:23:03
Eccentricity: 0.0009014
inclination: 98.6792°
perigee height: 784 km
apogee height: 797 km
right ascension of ascending node: 340.4929°
argument of perigee: 317.4473°
revolutions per day: 14.30437388
mean anomaly at epoch: 42.6010°
orbit number at epoch: 8179

The dashed part of the orbit path shows where the satellite is in the earth's shadow,  

DLR